Regional Weather Roundup
Issued by NWS Jackson, KY

Home | Current Version | Previous Version | Graphics & Text | Print | Product List | Glossary On
Versions: 1 2 3 4 5 6 7 8 9 10 11 12 13 14 15 16 17 18 19 20 21 22 23 24 25 26 27 28 29 30 31 32 33 34 35 36 37 38 39 40 41 42 43 44 45 46 47 48 49 50
000
ASUS43 KJKL 102005
RWRJKL

EAST KENTUCKY HOURLY WEATHER ROUNDUP
NATIONAL WEATHER SERVICE JACKSON KY
400 PM EDT THU JUL 10 2014

NOTE: "FAIR" INDICATES FEW OR NO CLOUDS BELOW 12,000 FEET WITH
NO SIGNIFICANT WEATHER AND/OR OBSTRUCTIONS TO VISIBILITY.

* THESE REPORTS ARE NOT UNDER NWS QUALITY CONTROL AND MAY NOT
  REPORT WEATHER SUCH AS PRECIPITATION AND FOG.

KYZ079-080-083-085-087-088-110-112-115-119-120-102100
...EASTERN KENTUCKY...

CITY           SKY/WX    TMP DP  RH WIND       PRES   REMARKS
JACKSON        MOSUNNY   83  55  38 CALM      30.10F
LONDON         PTSUNNY   86  54  33 CALM      30.10F
SOMERSET*      MOSUNNY   86  52  30 N5        30.10F
MONTICELLO*    SUNNY     88  58  36 CALM      30.11F
MIDDLESBORO*   PTSUNNY   84  63  48 N6        30.09F
HARLAN APT*    MOCLDY    82  57  42 MISG      30.10F
BLACK MTN*       N/A     72  61  68 N7          N/A
PIKEVILLE APT* SUNNY     82  57  42 NW3       30.10F
BIG SANDY*     PTCLDY    85  60  42 W3        30.09F
MOREHEAD APT*  MOCLDY    82  59  44 VRB5      30.12S
$$

KYZ035-036-041-042-044-050-067-078-099-102100
...CENTRAL KENTUCKY...

CITY           SKY/WX    TMP DP  RH WIND       PRES   REMARKS
MT STERLING*   SUNNY     82  61  47 CALM      30.11F
FLEMING/MASON* MOSUNNY   83  58  42 N5        30.10F
DANVILLE*      PTSUNNY   84  55  37 W3        30.11F
RICHMOND*      PTSUNNY   84  59  42 NE6       30.09F
LEXINGTON      PTSUNNY   84  60  44 N7        30.10F
FRANKFORT      MOSUNNY   84  57  39 W5G17     30.09F
$$

KYZ091>093-OHZ055-061-077-WVZ005-015-034-035-042-102100
...SOUTHERN OHIO/WEST VIRGINIA...

CITY           SKY/WX    TMP DP  RH WIND       PRES   REMARKS
COVINGTON      PTSUNNY   80  55  42 NW8       30.12S
COLUMBUS       PTSUNNY   81  56  42 N7        30.10F
DAYTON         MOSUNNY   79  53  40 NW6       30.15F
WILMINGTON     PTSUNNY   78  56  46 N10       30.12F
HUNTINGTON     MOSUNNY   79  66  64 E3        30.08F
CHARLESTON     PTSUNNY   83  61  47 N7        30.07F
PINEVILLE*     SUNNY     86  61  43 MISG      30.15F
BECKLEY        MOSUNNY   80  56  43 NW9       30.14F
BLUEFIELD      PTSUNNY   78  57  48 NW3       30.17F
$$

VAZ002-007-008-TNZ017-027-036-066-071-102100
...SOUTHWEST VIRGINIA/EAST TENNESSEE...

CITY           SKY/WX    TMP DP  RH WIND       PRES   REMARKS
WISE*          MOSUNNY   79  59  50 CALM      30.17F
JONESVILLE*    PTCLDY    82  63  51 NE3       30.12F
ABINGDON*      MOSUNNY   82  61  49 NE5       30.12F
BRISTOL        PTSUNNY   86  59  39 W10       30.08F
KNOXVILLE      PTSUNNY   84  66  54 NW7       30.06F
OAK RIDGE      SUNNY     86  66  51 CALM      30.09F
CROSSVILLE     MOSUNNY   81  59  47 N7        30.14S
NASHVILLE      CLOUDY    89  56  32 NW5       30.07F
$$

...KEY TO REMARKS...
VSB - VISIBILITY IN MILES
WCI - WIND CHILL INDEX
HX  - HEAT INDEX

$$



USA.gov is the U.S. government's official web portal to all federal, state and local government web resources and services.